Starlink 30129

operational
NORAD ID: 56689 Int'l Des: 2023-067 Owner: SPXS Country: US Constellation: starlink
LEOCIRCULAR

About Starlink 30129

Description loading...

Live Position

Loading 3D Globe...

Upcoming Passes

Altitude History

Altitude vs Time

uPlot chart will show altitude changes over time

Two-Line Element Set

1 56689U 23067B 25304.84582928 .00002433 00000-0 19506-3 0 9998
2 56689 43.0077 254.9630 0002355 274.5517 85.5056 15.02555375136278
Epoch: Oct 31, 2025 • Age: 18 hours

Current Status

Altitude 558.8 km
Velocity 7.58 km/s
Sub-Earth Point 4.24°N, 165.85°E
Launch Date May 19, 2023
Age 2.4 years
Type internet

Technical Details

Classification Payload
Mass 730.00 kg
Dry Mass 700.00 kg
Total Mass 730.00 kg
Length 0.30 m
Diameter 4.10 m
Span 29.00 m
Shape Box + pan
Manufacturer SPXS
Bus Type Starlink V2M
Phase Status In Orbit
Owner/State SPXS/US

Large Constellations

Loading constellations...